OBJECT D, 62728

Orbit data source: Space-Track

You're viewing an Uncataloged Satellite

Recently launched and/or uncataloged satellites may have evolving metadata. Metadata may include but not limited to: Owner, Maufacturer, Bus, Motor, and Mission.

OBJECT D, 62728 is a satellite owned by CASC (CN) in SSO that was launched on Fri, 17 Jan 2025 UTC launched from the Jiuquan Satellite Launch Center, China (JSC). Unknown objects in Earth's orbit typically refer to objects detected orbiting the Earth but have not yet been identified or cataloged. These objects could be anything from previously untracked satellites, spent rocket stages, debris from satellite collisions, or even natural meteoroids temporarily captured by Earth's gravity.

Loading next visibility...
Identifier
62728, 2025-012D
Orbit
SSO
Country
Flag of CNCN / PRC
Related business
Manufacturer
BWYIC
Mission
Spacecraft
Bus & Motor
CZ-2 STAGE 2, Unknown motor
Mass
4,006 kg wet, 4,006 kg dry
Launch date (UTC)
2025-01-17 (9 months ago)
Launch vehicle
Unknown
Launch site
Jiuquan Satellite Launch Center, China (JSC)
Object type
Unknown
Shape & HBR
Cyl + 1 Sail, 3.0 m
Radar Cross Section
27.824 m², Large (>1 m²)

Expand to show TLE details & history
Last TLE update: 6 hours ago

TLE from 6 hours ago
0 OBJECT D
1 62728U 25012D   25299.46347243  .00042905  00000-0  13524-2 0  9992
2 62728  97.4475  13.6727 0005727 354.7947   5.3234 15.32748086 42916
Epoch: 2025-10-26T11:07Z
TLE epoch observation values (Epoch: 2025-10-26T11:07:24.017Z)
Latitude
-0.00009°
Longitude
171.74334°
Altitude
466.819 km
Speed
7.635 km/s
True Right ascension
00h 54m 41s
True Declination
0° 00' 00"
Sunlit
Object was in full shadow at epoch
Visualization orbit readout
Latitude
Unknown
Longitude
Unknown
Altitude
Unknown
Speed
Unknown
Apparent Right ascension
Unknown
Apparent Declination
Unknown
Sunlit
N/A
Visualization observer readout
Local Sidereal Time
12:41:28
Azimuth
Unknown
Elevation
Unknown
Doppler factor
Unknown
Orbital elements
Apogee altitude
468.487 km
Perigee altitude
460.649 km
Semi-major axis
6,842.705 km
Eccentricity
0.00057
Inclination
97.4475°
RAAN
13.6727°
Arg. of periapsis
354.7947°
True anomaly
5.32949°
Mean anomaly
5.3234°
Eccentric anomaly
5.32645°
Mean motion
3.83444 °/min
Orbital period
93.89 mins
BSTAR
0.0013524
Loading maneuver chart data...
Computing Atmospheric mass density...
Loading historical data...
Loading historical data...
Loading historical data...
Loading historical data...
Loading historical data...
Loading historical data...
Loading historical data...
Other satellites on launch #12 in the year 2025 (2025-01-17 UTC)

Documentation

Showing up to 5 results
|